Date String (YYYY-MM-DD hh:mm:ss) UTC,Instrument flags,absolute air pressure of the measurement (hPa),sample flow rate (lpm),inlet stack bypass flow (lpm),air temperature of the measurement (°C),ambient temperature measured by the external sensor (°C),aerosol sample conditioner tube jacket temperature (°C),OPC LED temperature (°C),internal box temperature (°C),relative humidity of the measurement (%),span deviation,mass concentration of particles derived from Lorenz-Mie calculation of OPC scattering (μg/m³),mass concentration of particles derived from Lorenz-Mie calculation of OPC scattering (μg/m³),mass concentration of particles derived from Lorenz-Mie calculation of OPC scattering (μg/m³)
DateTimeUTC,F1_M11,P_M11,Q1_M11,Q2_M11,T1_M11,T2_M11,T3_M11,T4_M11,T5_M11,U1_M11,ZSPAN_M11,X0_M11,X2_M11,X1_M11
2023-08-18 10:00:00,SystemResetWarning,0830.0,5.00,000.00,028.2,025.5,000.0,036.7,029.7,33.4,0000.5,0028.95,0012.05,0010.07
2023-08-18 10:01:00,SystemResetWarning,0830.0,5.00,000.00,028.2,025.8,000.0,036.7,029.8,33.4,0000.6,0028.17,0011.93,0010.04
2023-08-18 10:02:00,SystemResetWarning,0830.0,5.00,000.00,028.2,026.2,000.0,036.7,029.9,33.4,0000.8,0026.77,0011.78,0010.01
2023-08-18 10:03:00,SystemResetWarning,0830.0,5.00,000.00,028.3,026.4,000.0,036.7,029.9,33.3,0000.8,0026.93,0011.71,0009.97
2023-08-18 10:04:00,SystemResetWarning,0830.0,5.00,000.00,028.3,026.6,000.0,036.8,030.0,33.3,0000.7,0027.02,0011.63,0009.96
2023-08-18 10:05:00,SystemResetWarning,0830.0,4.99,000.00,028.3,026.8,000.0,036.8,030.0,33.2,0000.7,0026.31,0011.49,0009.93
2023-08-18 10:06:00,SystemResetWarning,0830.1,4.99,000.00,028.4,027.0,000.0,036.8,030.1,33.1,0000.3,0025.92,0011.44,0009.90
2023-08-18 10:07:00,SystemResetWarning,0830.1,5.00,000.00,028.4,027.1,000.0,036.8,030.2,33.1,0000.1,0025.36,0011.44,0009.91
2023-08-18 10:08:00,SystemResetWarning,0830.1,5.01,000.00,028.4,027.2,000.0,036.8,030.2,33.0,0000.0,0025.21,0011.56,0009.93
2023-08-18 10:09:00,SystemResetWarning,0830.0,5.00,000.00,028.5,026.5,000.0,036.8,030.1,33.0,0000.3,0025.18,0011.63,0009.94
2023-08-18 10:10:00,SystemResetWarning,0830.1,4.99,000.00,028.4,024.6,000.0,036.7,029.7,33.1,0000.4,0024.64,0011.64,0009.96
2023-08-18 10:11:00,SystemResetWarning,0830.0,5.01,000.00,028.3,023.7,000.0,036.6,029.5,33.4,0000.5,0023.75,0011.60,0009.98
2023-08-18 10:12:00,SystemResetWarning,0830.1,5.01,000.00,028.2,023.7,000.0,036.6,029.3,33.6,0000.7,0023.71,0011.63,0009.99
2023-08-18 10:13:00,SystemResetWarning,0830.0,4.99,000.00,028.0,024.1,000.0,036.6,029.2,33.8,0000.8,0024.34,0011.65,0009.99
2023-08-18 10:14:00,SystemResetWarning,0830.0,5.00,000.00,028.0,024.6,000.0,036.6,029.4,33.9,0000.8,0024.36,0011.63,0010.00
2023-08-18 10:15:00,SystemResetWarning,0830.1,5.00,000.00,028.0,025.0,000.0,036.6,029.5,34.0,0000.8,0024.80,0011.64,0009.99
2023-08-18 10:16:00,SystemResetWarning,0830.0,5.00,000.00,028.0,025.4,000.0,036.6,029.6,34.0,0000.9,0025.43,0011.71,0009.99
2023-08-18 10:17:00,SystemResetWarning,0830.0,5.00,000.00,028.0,025.8,000.0,036.6,029.7,33.9,0001.2,0024.96,0011.69,0009.98
2023-08-18 10:18:00,SystemResetWarning,0830.1,5.00,000.00,028.0,026.1,000.0,036.6,029.7,33.8,0001.2,0024.29,0011.67,0009.96
2023-08-18 10:19:00,SystemResetWarning,0830.0,5.00,000.00,028.1,026.3,000.0,036.6,029.8,33.7,0001.2,0023.88,0011.60,0009.94
2023-08-18 10:20:00,SystemResetWarning,0830.0,5.00,000.00,028.1,026.5,000.0,036.6,029.8,33.6,0001.1,0023.91,0011.61,0009.96
2023-08-18 10:21:00,SystemResetWarning,0830.1,5.00,000.00,028.2,026.7,000.0,036.6,029.9,33.5,0000.8,0024.59,0011.57,0009.96
2023-08-18 10:22:00,SystemResetWarning,0830.0,5.00,000.00,028.2,026.9,000.0,036.7,029.9,33.4,0001.1,0024.70,0011.54,0009.96
2023-08-18 10:23:00,SystemResetWarning,0830.0,4.99,000.00,028.2,027.0,000.0,036.7,030.0,33.3,0001.3,0025.00,0011.58,0009.98
2023-08-18 10:24:00,SystemResetWarning,0830.1,5.00,000.00,028.3,027.1,000.0,036.7,030.0,33.3,0001.2,0025.21,0011.69,0010.01
2023-08-18 10:25:00,SystemResetWarning,0830.1,5.00,000.00,028.3,027.2,000.0,036.7,030.1,32.0,0001.1,0024.52,0011.76,0010.04
2023-08-18 10:26:00,SystemResetWarning,0830.1,5.00,000.00,028.3,027.3,000.0,036.7,030.1,32.8,0000.9,0023.37,0011.83,0010.10
2023-08-18 10:27:00,SystemResetWarning,0830.0,5.00,000.00,028.4,027.3,000.0,036.8,030.1,33.0,0000.9,0022.28,0011.89,0010.13
2023-08-18 10:28:00,SystemResetWarning,0830.0,4.99,000.00,028.4,026.8,000.0,036.7,030.1,33.0,0001.0,0022.45,0011.98,0010.17
2023-08-18 10:29:00,SystemResetWarning,0830.0,4.99,000.00,028.4,025.1,000.0,036.6,029.9,33.0,0001.3,0023.87,0012.00,0010.21
2023-08-18 10:30:00,SystemResetWarning,0830.0,5.01,000.00,028.3,024.5,000.0,036.6,029.7,33.1,0001.2,0024.51,0012.06,0010.25
2023-08-18 10:31:00,SystemResetWarning,0830.0,5.00,000.00,028.2,024.7,000.0,036.6,029.6,33.3,0001.0,0024.76,0012.09,0010.26
2023-08-18 10:32:00,SystemResetWarning,0830.0,5.00,000.00,028.2,025.0,000.0,036.6,029.6,33.5,0000.8,0024.72,0012.14,0010.27
2023-08-18 10:33:00,SystemResetWarning,0830.0,5.00,000.00,028.2,025.4,000.0,036.6,029.7,33.4,0000.8,0024.60,0012.13,0010.28
2023-08-18 10:34:00,SystemResetWarning,0830.0,5.00,000.00,028.2,025.7,000.0,036.7,029.7,33.0,0000.6,0025.24,0012.13,0010.28
2023-08-18 10:35:00,SystemResetWarning,0830.0,5.00,000.00,028.2,026.0,000.0,036.7,029.8,33.2,0000.4,0025.47,0012.10,0010.28
2023-08-18 10:36:00,SystemResetWarning,0830.0,5.00,000.00,028.2,026.3,000.0,036.7,029.9,33.4,0000.1,0026.12,0012.07,0010.27
2023-08-18 10:37:00,SystemResetWarning,0830.0,5.00,000.00,028.2,026.5,000.0,036.7,029.9,33.2,0000.2,0026.33,0012.08,0010.28
2023-08-18 10:38:00,SystemResetWarning,0830.0,4.99,000.00,028.3,026.7,000.0,036.7,030.0,33.2,-000.2,0026.65,0012.10,0010.29
2023-08-18 10:39:00,SystemResetWarning,0830.0,4.99,000.00,028.3,026.9,000.0,036.7,030.0,33.1,-000.4,0026.19,0012.05,0010.31
2023-08-18 10:40:00,SystemResetWarning,0830.0,5.00,000.00,028.3,027.0,000.0,036.8,030.0,32.9,-001.0,0025.09,0012.06,0010.31
2023-08-18 10:41:00,SystemResetWarning,0830.0,5.00,000.00,028.4,027.1,000.0,036.8,030.1,32.9,-000.7,0024.28,0012.01,0010.33
2023-08-18 10:42:00,SystemResetWarning,0830.1,5.00,000.00,028.4,027.2,000.0,036.8,030.1,33.0,-000.3,0023.97,0012.02,0010.33
2023-08-18 10:43:00,SystemResetWarning,0830.0,5.00,000.00,028.4,027.3,000.0,036.8,030.2,32.9,0000.1,0024.77,0012.00,0010.32
2023-08-18 10:44:00,SystemResetWarning,0830.0,5.00,000.00,028.5,026.8,000.0,036.8,030.2,32.8,-000.1,0025.90,0012.00,0010.34
2023-08-18 10:45:00,SystemResetWarning,0830.0,5.00,000.00,028.4,025.0,000.0,036.7,029.9,32.9,-000.2,0025.38,0012.03,0010.36
2023-08-18 10:46:00,SystemResetWarning,0830.1,5.01,000.00,028.3,023.8,000.0,036.6,029.7,33.0,-000.3,0025.24,0012.06,0010.37
2023-08-18 10:47:00,SystemResetWarning,0830.0,5.01,000.00,028.2,023.7,000.0,036.6,029.4,33.2,0000.1,0025.60,0012.10,0010.38
2023-08-18 10:48:00,SystemResetWarning,0830.0,5.00,000.00,028.1,024.0,000.0,036.6,029.3,33.4,0000.2,0026.56,0012.11,0010.35
2023-08-18 10:49:00,SystemResetWarning,0830.0,4.99,000.00,028.0,024.5,000.0,036.6,029.4,33.5,0000.7,0027.10,0012.07,0010.36
2023-08-18 10:50:00,SystemResetWarning,0830.0,5.01,000.00,028.0,024.9,000.0,036.6,029.5,33.6,0001.0,0027.54,0012.12,0010.33
2023-08-18 10:51:00,SystemResetWarning,0830.0,5.01,000.00,028.0,025.4,000.0,036.6,029.6,33.3,0001.6,0027.97,0012.08,0010.30
2023-08-18 10:52:00,SystemResetWarning,0830.1,5.00,000.00,028.0,025.7,000.0,036.6,029.7,33.3,0001.7,0028.16,0012.07,0010.27
2023-08-18 10:53:00,SystemResetWarning,0830.1,5.00,000.00,028.1,026.0,000.0,036.6,029.7,33.2,0001.8,0027.66,0011.91,0010.17
2023-08-18 10:54:00,SystemResetWarning,0830.0,5.00,000.00,028.1,026.3,000.0,036.6,029.8,33.2,0002.0,0027.79,0011.82,0010.11
2023-08-18 10:55:00,SystemResetWarning,0830.0,5.00,000.00,028.1,026.5,000.0,036.6,029.8,33.2,0002.1,0027.38,0011.81,0010.06
2023-08-18 10:56:00,SystemResetWarning,0830.0,5.00,000.00,028.1,026.7,000.0,036.6,029.9,33.2,0002.4,0027.90,0011.77,0010.04
2023-08-18 10:57:00,SystemResetWarning,0830.0,5.00,000.00,028.2,026.8,000.0,036.7,030.0,33.1,0002.7,0027.97,0011.80,0010.03
2023-08-18 10:58:00,SystemResetWarning,0830.0,5.00,000.00,028.2,027.0,000.0,036.7,030.0,33.0,0002.4,0027.37,0011.80,0010.02
2023-08-18 10:59:00,SystemResetWarning,0830.0,5.00,000.00,028.3,027.1,000.0,036.7,030.0,33.1,0002.4,0027.49,0011.80,0010.02
